Home   Weather   Santiago de Cuba   Past weeks

Flag for Cuba Past Weather in Santiago de Cuba, Cuba — Yesterday and Last 2 Weeks

Now
77 °F

Passing clouds.


Feels Like: 79 °F
Forecast: 74 / 94 °F
Wind: 7 mph from North

Location: Santiago De Cuba - Oriente

Current Time: Sep 29, 2016 at 7:55:14 AM

Latest Report: Sep 29, 2016 at 6:50 AM


Visibility: N/A

Pressure: 29.98 "Hg

Humidity: 79%

Dew Point: 70 °F

Location of Santiago de CubaLocation

Past Weather in Santiago de Cuba — Graph

°F

Santiago de Cuba Temperature Yesterday

Maximum temperature yesterday: 91 °F (at 10:50 AM)
Minimum temperature yesterday: 75 °F (at 3:50 AM)
Average temperature yesterday: 83 °F

High & Low Weather Summary for the Past Weeks

 TemperatureHumidityPressure
High91 °F (Sep 28, 10:50 AM)94% (Sep 15, 2:50 AM)30.04 "Hg (Sep 15, 2:50 AM)
Low73 °F (Sep 19, 5:50 AM)46% (Sep 18, 10:50 AM)29.86 "Hg (Sep 21, 3:52 PM)
Average82 °F72%29.96 "Hg
* Reported Sep 14 5:51 AM — Sep 29 5:50 AM, Santiago de Cuba, Weather by CustomWeather, © 2016

Note: Actual official high and low records may vary slightly from our data, if they occured in-between our weather recording intervals... More about our weather records

Advertising

Santiago de Cuba Weather History for the Previous 24 Hours

Scroll right to see more
 ConditionsComfort  
Time TempWeatherWind HumidityBarometerVisibility
5:50 AM
Thu, Sep 29
77 °FPassing clouds.7 mph79%29.98 "Hg6 mi
4:51 AM77 °FPassing clouds.8 mph79%29.98 "Hg6 mi
3:51 AM77 °FPassing clouds.6 mph74%29.98 "Hg6 mi
2:51 AM77 °FPassing clouds.7 mph74%30.01 "Hg6 mi
1:51 AM79 °FPassing clouds.7 mph70%30.01 "Hg6 mi
12:54 AM79 °FPassing clouds.6 mph65%30.01 "Hg6 mi
11:50 PM
Wed, Sep 28
79 °FPassing clouds.9 mph65%30.04 "Hg6 mi
10:50 PM79 °FPassing clouds.6 mph70%30.04 "Hg6 mi
9:50 PM81 °FPassing clouds.6 mph74%30.01 "Hg6 mi
8:50 PM81 °FPassing clouds.5 mph70%30.01 "Hg6 mi
7:50 PM82 °FPassing clouds.3 mph66%29.98 "Hg6 mi
6:51 PM84 °FScattered clouds.5 mph62%29.98 "Hg6 mi
5:51 PM88 °FScattered clouds.3 mph52%29.98 "Hg6 mi
4:51 PM88 °FScattered clouds.7 mph66%29.98 "Hg6 mi
3:50 PM88 °FScattered clouds.9 mph62%29.98 "Hg6 mi
2:51 PM90 °FScattered clouds.10 mph55%29.98 "Hg6 mi
1:52 PM90 °FScattered clouds.10 mph52%30.01 "Hg6 mi
12:51 PM88 °FScattered clouds.13 mph62%30.01 "Hg6 mi
11:50 AM90 °FPassing clouds.12 mph55%30.04 "Hg6 mi
10:50 AM91 °FPassing clouds.9 mph46%30.04 "Hg6 mi
9:51 AM88 °FPassing clouds.10 mph52%30.04 "Hg6 mi
8:50 AM84 °FPassing clouds.9 mph62%30.04 "Hg6 mi
7:51 AM79 °FPassing clouds.8 mph79%30.01 "Hg6 mi
Weather by CustomWeather, © 2016

See weather overviewHow to use our weather pages